Location: Arrien
(42.8963°N, 1.0429°E)
Time: 13:59:29
(UTC+00:00)

SL-24 R/B - RUBIN 2 - Pass Details

Date: 11 December 2025
Orbit: 601 x 986 km, 64.6° (Epoch: 19 January)

Event Time Altitude Azimuth Distance (km) Brightness Sun altitude
Rises 18:24:24 0° 196° (SSW) 3,404 7.7 -21.7°
Reaches altitude 10° 18:27:03 10° 190° (S) 2,410 6.8 -22.2°
Enters shadow 18:32:01 46° 128° (SE) 1,017 4.3 -23.0°
